Volver al catálogo

ATLAS 5 CENTAUR DEB

ActivoHEO
NORAD 44651·DEBRIS·🇺🇸 United States

Lanzado Oct 17, 2018 desde Cape Canaveral Space Force Station

Loading…

Próximos Pases (próximas 24 horas)

TLE

ActualizadoSource: Space-Track

Época: Sep 10, 2026, 00:26 UTC

1 44651U 18079M   26253.01833122 -.00000205  00000-0  00000-0 0  9991
2 44651  13.3970  25.5811 4674339 335.8930   7.7878  1.83292575 49635

Sigue ATLAS 5 CENTAUR DEB en tiempo real con AllMySat

Download on the App Store